Location: Edinburgh
(55.9500°N, 3.1600°W)
Time: 00:00:44
(UTC+00:00)

Vanguard 2 - Visible Passes

Search period start: 19 February 2018 00:00
Search period end: 01 March 2018 00:00
Orbit: 553 x 2939 km, 32.9° (Epoch: 18 February)

Date Brightness Start Highest point End Pass type
(mag) Time Alt. Az. Time Alt. Az. Time Alt. Az.
20 Feb 10.4 19:02:11 10° S 19:02:27 10° S 19:02:43 10° S visible
21 Feb 10.3 19:18:15 10° SSW 19:20:00 11° S 19:21:36 10° S visible
22 Feb 10.3 19:35:40 10° SSW 19:37:29 11° SSW 19:39:10 10° S visible
23 Feb 10.4 19:53:55 10° SSW 19:54:56 10° SSW 19:55:54 10° SSW visible
25 Feb 10.6 18:16:44 10° SW 18:22:48 16° SSW 18:27:34 10° SSE visible
26 Feb 10.6 18:34:19 10° SW 18:40:15 16° SSW 18:44:58 10° SSE visible
27 Feb 10.7 18:52:10 10° SW 18:57:40 15° SSW 19:02:06 10° S visible
28 Feb 10.8 19:10:24 10° SW 19:14:59 13° SSW 19:18:50 10° S visible
